QPF
0.00 0.01 0.00 0.00 0.00 0.00 0.00 0.00 0.00 0.00 0.00 0.00 0.00 0.00 0.00 0.00 0.00 0.00 0.00 0.00 0.00 0.00 0.00 0.00 0.00 0.00 0.00 0.00 0.00 0.00 0.00 0.00 0.00 0.00 0.00 0.00 0.00 0.00 0.00 0.00 0.00 0.00 0.00
0.00 0.00 0.00 0.00 0.00 0.00 0.00 0.00 0.00 0.00 0.00 0.00 0.00 0.00 0.00 0.00 0.00 0.00 0.00 0.00 0.00 0.00 0.00 0.00 0.00 0.00 0.00 0.00 0.00 0.00 0.00 0.00 0.00 0.00 0.00 0.00 0.00 0.00 0.00 0.00 0.00 0.00 0.01
0.00 0.00 0.00 0.00 0.00 0.00 0.00 0.00 0.00 0.00 0.00 0.00 0.00 0.00 0.00 0.00 0.00 0.00 0.00 0.00 0.00 0.00 0.00 0.00 0.00 0.00 0.00 0.00 0.00 0.00 0.00 0.00 0.00 0.00 0.00 0.00 0.00 0.00 0.00 0.00 0.00 0.00 0.00
0.00 0.00 0.00 0.00 0.00 0.00 0.00 0.00 0.00 0.00 0.00 0.00 0.00 0.00 0.00 0.00 0.00 0.00 0.00 0.00 0.00 0.00 0.00 0.00 0.00 0.00 0.00 0.00 0.00 0.00 0.00 0.00 0.00 0.00 0.00 0.00 0.00 0.00 0.00 0.00 0.00 0.00 0.00
0.00 0.00 0.00 0.00 0.00 0.00 0.00 0.00 0.00 0.00 0.00 0.00 0.00 0.00 0.00 0.00 0.00 0.00 0.00 0.00 0.00 0.00 0.00 0.00 0.00 0.00 0.00 0.00 0.00 0.00 0.00 0.00 0.00 0.01 0.00 0.00 0.00 0.00 0.00 0.00 0.00 0.00 0.00
0.00 0.00 0.00 0.00 0.00 0.00 0.00 0.00 0.00 0.00 0.00 0.00 0.00 0.00 0.00 0.00 0.00 0.00 0.00 0.00 0.00 0.00 0.00 0.00 0.00 0.00 0.00 0.00 0.00 0.00 0.00 0.00 0.00 0.00 0.00 0.00 0.00 0.00 0.00 0.00 0.00 0.00 0.00
0.00 0.00 0.00 0.00 0.00 0.00 0.00 0.00 0.00 0.00 0.00 0.00 0.00 0.00 0.00 0.00 0.00 0.00 0.00 0.00 0.00 0.00 0.00 0.00 0.00 0.00 0.00 0.00 0.00 0.00 0.00 0.00 0.00 0.00 0.00 0.00 0.00 0.00 0.00 0.00 0.00 0.00 0.00
0.00 0.00 0.00 0.00 0.00 0.00 0.00 0.00 0.00 0.00 0.00 0.00 0.00 0.00 0.00 0.00 0.00 0.00 0.00 0.00 0.00 0.00 0.00 0.00 0.00 0.00 0.00 0.00 0.00 0.00 0.00 0.00 0.00 0.00 0.00 0.00 0.00 0.00 0.00 0.00 0.00 0.00 0.00
0.00 0.00 0.00 0.00 0.00 0.00 0.00 0.00 0.00 0.00 0.00 0.00 0.00 0.00 0.00 0.00 0.00 0.00 0.00 0.00 0.00 0.00 0.00 0.00 0.00 0.00 0.00 0.00 0.00 0.00 0.00 0.00 0.00 0.00 0.00 0.00 0.00 0.00 0.00 0.01 0.01 0.01 0.00
0.00 0.00 0.00 0.00 0.00 0.00 0.00 0.00 0.00 0.00 0.00 0.00 0.00 0.00 0.00 0.00 0.00 0.00 0.00 0.00 0.00 0.00 0.00 0.00 0.00 0.00 0.00 0.00 0.00 0.00 0.00 0.00 0.00 0.00 0.00 0.00 0.00 0.00 0.00 0.00 0.01 0.01 0.01
0.00 0.00 0.00 0.00 0.00 0.00 0.00 0.00 0.00 0.00 0.00 0.00 0.00 0.00 0.00 0.00 0.00 0.00 0.00 0.00 0.00 0.00 0.00 0.00 0.00 0.00 0.00 0.00 0.00 0.00 0.00 0.00 0.00 0.00 0.00 0.00 0.00 0.00 0.00 0.00 0.00 0.02 0.02
0.00 0.00 0.00 0.00 0.00 0.00 0.00 0.00 0.00 0.00 0.00 0.00 0.00 0.00 0.00 0.00 0.00 0.00 0.00 0.00 0.00 0.00 0.00 0.00 0.00 0.00 0.00 0.00 0.00 0.00 0.00 0.00 0.00 0.00 0.00 0.00 0.00 0.00 0.00 0.00 0.00 0.00 0.01
0.00 0.00 0.00 0.00 0.00 0.00 0.00 0.00 0.00 0.00 0.00 0.00 0.00 0.00 0.00 0.00 0.00 0.00 0.00 0.00 0.00 0.00 0.00 0.00 0.00 0.00 0.00 0.00 0.00 0.00 0.00 0.00 0.00 0.00 0.00 0.00 0.00 0.00 0.00 0.00 0.00 0.00 0.01
0.00 0.00 0.00 0.00 0.00 0.00 0.00 0.00 0.00 0.00 0.00 0.00 0.00 0.00 0.00 0.00 0.00 0.00 0.01 0.00 0.00 0.00 0.00 0.00 0.00 0.00 0.00 0.00 0.00 0.00 0.00 0.00 0.00 0.00 0.00 0.00 0.00 0.00 0.00 0.00 0.00 0.00 0.00
0.00 0.00 0.00 0.00 0.00 0.00 0.00 0.00 0.00 0.00 0.00 0.00 0.00 0.00 0.00 0.01 0.01 0.01 0.00 0.00 0.00 0.01 0.00 0.00 0.00 0.00 0.00 0.00 0.00 0.00 0.00 0.00 0.00 0.00 0.00 0.00 0.00 0.00 0.00 0.00 0.00 0.00 0.00
0.00 0.00 0.00 0.00 0.00 0.00 0.00 0.00 0.00 0.00 0.00 0.00 0.00 0.00 0.00 0.01 0.02 0.02 0.01 0.00 0.00 0.00 0.00 0.00 0.00 0.00 0.00 0.00 0.00 0.00 0.00 0.00 0.00 0.00 0.00 0.00 0.00 0.00 0.00 0.00 0.00 0.00 0.00
0.00 0.00 0.00 0.00 0.00 0.00 0.00 0.00 0.00 0.00 0.00 0.00 0.00 0.00 0.00 0.01 0.00 0.00 0.00 0.00 0.00 0.00 0.00 0.00 0.00 0.00 0.00 0.00 0.00 0.00 0.00 0.00 0.00 0.00 0.00 0.00 0.00 0.00 0.00 0.00 0.00 0.00 0.00
0.00 0.00 0.00 0.00 0.00 0.00 0.00 0.00 0.00 0.00 0.00 0.00 0.00 0.00 0.00 0.00 0.00 0.00 0.00 0.00 0.00 0.00 0.00 0.00 0.00 0.00 0.00 0.00 0.00 0.00 0.00 0.00 0.00 0.00 0.00 0.00 0.00 0.00 0.00 0.00 0.01 0.01 0.01
0.00 0.00 0.00 0.00 0.00 0.00 0.00 0.00 0.00 0.00 0.00 0.00 0.00 0.00 0.00 0.00 0.00 0.00 0.00 0.00 0.00 0.00 0.00 0.00 0.00 0.00 0.00 0.00 0.00 0.00 0.00 0.00 0.00 0.00 0.00 0.00 0.00 0.00 0.00 0.01 0.01 0.01 0.00
0.00 0.00 0.00 0.00 0.00 0.00 0.00 0.00 0.00 0.00 0.00 0.00 0.00 0.00 0.00 0.00 0.00 0.00 0.00 0.00 0.00 0.00 0.00 0.00 0.00 0.00 0.00 0.00 0.00 0.00 0.00 0.00 0.00 0.00 0.00 0.00 0.00 0.00 0.00 0.00 0.00 0.01 0.01
0.00 0.00 0.00 0.00 0.00 0.00 0.00 0.00 0.00 0.00 0.00 0.00 0.00 0.00 0.00 0.00 0.00 0.00 0.00 0.00 0.00 0.00 0.00 0.00 0.00 0.00 0.00 0.00 0.00 0.00 0.00 0.00 0.00 0.00 0.00 0.00 0.00 0.00 0.00 0.00 0.00 0.01 0.02
0.00 0.00 0.00 0.00 0.00 0.00 0.00 0.00 0.00 0.00 0.00 0.00 0.00 0.00 0.00 0.00 0.00 0.00 0.00 0.00 0.00 0.00 0.00 0.00 0.00 0.00 0.00 0.00 0.00 0.00 0.00 0.00 0.00 0.00 0.00 0.00 0.00 0.00 0.00 0.03 0.08 0.07 0.03
0.00 0.00 0.00 0.00 0.00 0.00 0.00 0.00 0.00 0.00 0.00 0.00 0.00 0.00 0.00 0.00 0.00 0.00 0.00 0.00 0.00 0.00 0.00 0.00 0.00 0.00 0.00 0.00 0.00 0.00 0.00 0.00 0.00 0.00 0.00 0.00 0.00 0.00 0.00 0.00 0.01 0.01 0.02
0.00 0.00 0.00 0.00 0.00 0.00 0.00 0.00 0.00 0.00 0.00 0.00 0.00 0.00 0.00 0.00 0.00 0.00 0.00 0.00 0.00 0.00 0.00 0.00 0.00 0.00 0.00 0.00 0.00 0.00 0.00 0.00 0.00 0.00 0.00 0.01 0.00 0.00 0.00 0.00 0.00 0.00 0.00
0.00 0.00 0.00 0.00 0.00 0.00 0.00 0.00 0.00 0.00 0.00 0.00 0.00 0.00 0.00 0.00 0.00 0.00 0.00 0.00 0.00 0.00 0.00 0.00 0.00 0.00 0.00 0.00 0.00 0.01 0.02 0.02 0.01 0.00 0.00 0.00 0.00 0.00 0.00 0.00 0.00 0.00 0.00
0.00 0.00 0.00 0.00 0.00 0.00 0.00 0.00 0.00 0.00 0.00 0.00 0.00 0.00 0.00 0.00 0.00 0.00 0.00 0.00 0.00 0.00 0.00 0.00 0.00 0.00 0.00 0.00 0.00 0.01 0.01 0.02 0.02 0.02 0.00 0.03 0.00 0.00 0.00 0.00 0.00 0.00 0.00
MSLP
1022.92 1023.44 1023.59 1023.72 1024.02 1023.78 1023.74 1024.15 1024.11 1024.09 1024.28 1024.26 1024.52 1024.46 1024.33 1024.38 1024.37 1024.24 1024.17 1023.89 1023.82 1023.72 1023.77 1023.79 1023.96 1024.12 1024.26 1024.21 1024.53 1024.41 1024.45 1024.30 1024.08 1023.85 1023.55 1023.26 1023.01 1022.75 1022.41 1022.09 1021.89 1021.45 1020.95
1023.00 1023.37 1023.85 1023.85 1023.96 1023.93 1024.14 1024.00 1024.50 1024.70 1024.77 1024.68 1024.65 1024.64 1024.51 1024.66 1024.47 1024.37 1024.12 1023.97 1023.91 1023.86 1023.83 1023.99 1024.04 1024.05 1024.22 1024.28 1024.37 1024.42 1024.48 1024.39 1024.29 1024.16 1023.91 1023.60 1023.32 1023.05 1022.78 1022.35 1021.95 1021.74 1021.44
1023.30 1023.52 1023.81 1023.96 1024.23 1024.22 1024.28 1024.31 1024.83 1024.99 1025.00 1024.87 1025.00 1024.84 1024.89 1024.77 1024.74 1024.68 1024.44 1024.13 1023.97 1023.78 1023.87 1024.09 1024.38 1024.02 1024.21 1024.28 1024.21 1024.26 1024.29 1024.25 1024.42 1024.27 1024.06 1023.98 1023.65 1023.35 1023.04 1022.78 1022.45 1022.04 1021.72
1023.54 1023.71 1023.99 1024.11 1024.25 1024.33 1024.56 1024.81 1025.24 1025.40 1025.42 1025.48 1025.48 1025.40 1025.24 1024.93 1024.84 1024.65 1024.56 1024.26 1024.27 1024.13 1024.36 1024.52 1024.49 1024.30 1024.18 1024.25 1024.14 1024.17 1024.10 1024.17 1024.20 1024.47 1024.50 1024.43 1024.18 1023.81 1023.42 1023.02 1022.60 1022.29 1021.80
1023.53 1023.89 1023.88 1024.00 1024.28 1024.66 1024.94 1025.15 1025.38 1025.40 1025.64 1025.66 1025.51 1025.41 1025.36 1025.19 1025.08 1025.03 1024.97 1024.77 1024.70 1024.64 1024.65 1024.86 1024.94 1024.71 1024.56 1024.45 1024.37 1024.27 1024.21 1024.18 1024.26 1024.35 1024.47 1024.55 1024.45 1024.09 1023.62 1023.12 1022.66 1022.30 1021.92
1023.53 1023.77 1023.85 1024.33 1024.56 1024.97 1025.26 1025.36 1025.59 1025.63 1025.57 1025.55 1025.45 1025.58 1025.43 1025.26 1025.28 1025.44 1025.33 1025.04 1025.05 1024.99 1025.05 1025.02 1024.78 1024.46 1024.21 1024.27 1024.18 1024.38 1024.32 1024.40 1024.37 1024.46 1024.32 1024.38 1024.52 1024.22 1023.65 1022.97 1022.48 1022.13 1021.78
1023.61 1024.05 1024.47 1024.78 1025.00 1025.33 1025.65 1025.56 1025.61 1025.59 1025.53 1025.53 1025.66 1025.83 1025.41 1025.38 1025.43 1025.57 1025.46 1025.44 1025.42 1025.27 1025.10 1024.94 1024.78 1024.50 1024.42 1024.36 1024.41 1024.37 1024.23 1024.18 1024.44 1024.42 1024.27 1024.32 1024.37 1024.17 1023.73 1022.95 1022.21 1021.78 1021.56
1023.64 1023.92 1024.34 1024.77 1025.02 1025.38 1025.59 1025.58 1025.52 1025.71 1025.82 1025.75 1026.15 1026.20 1026.27 1025.90 1025.76 1025.61 1025.49 1025.56 1025.83 1025.65 1025.50 1025.15 1024.96 1024.81 1024.81 1024.69 1024.47 1024.32 1024.18 1024.22 1024.29 1024.16 1024.11 1024.12 1024.12 1023.99 1023.65 1023.01 1022.42 1021.74 1021.26
1023.63 1024.01 1024.33 1024.58 1024.84 1025.06 1025.33 1025.44 1025.63 1025.80 1026.09 1026.04 1026.06 1026.58 1026.81 1026.74 1026.29 1025.96 1025.84 1025.88 1025.72 1025.67 1025.66 1025.42 1025.20 1025.10 1024.99 1024.87 1024.60 1024.42 1024.08 1023.96 1023.94 1024.00 1023.96 1023.86 1023.87 1023.73 1023.44 1023.12 1022.40 1021.92 1021.29
1023.41 1023.53 1024.03 1024.45 1024.85 1025.05 1025.32 1025.36 1025.30 1025.58 1025.74 1026.14 1026.27 1026.29 1026.56 1026.83 1026.74 1026.54 1026.17 1025.80 1025.75 1025.72 1025.55 1025.46 1025.38 1025.17 1025.00 1024.95 1024.73 1024.36 1024.14 1024.17 1024.11 1024.01 1023.90 1023.64 1023.44 1023.33 1023.16 1022.81 1022.34 1021.72 1021.14
1023.45 1023.86 1024.23 1024.55 1024.87 1025.09 1025.27 1025.37 1025.53 1025.58 1025.68 1025.89 1026.18 1026.42 1026.51 1026.44 1026.44 1026.68 1026.38 1026.21 1025.90 1025.62 1025.59 1025.47 1025.21 1025.08 1024.86 1024.72 1024.54 1024.25 1023.95 1023.79 1023.84 1023.74 1023.50 1023.27 1023.04 1022.84 1022.73 1022.55 1021.94 1021.35 1020.90
1023.93 1023.91 1024.19 1024.48 1024.76 1024.98 1025.17 1025.35 1025.41 1025.48 1025.60 1025.69 1025.78 1026.07 1026.41 1026.55 1026.55 1026.56 1026.57 1026.39 1026.24 1025.77 1025.58 1025.49 1025.30 1024.98 1024.72 1024.51 1024.11 1023.72 1023.58 1023.59 1023.52 1023.36 1023.21 1022.99 1022.74 1022.50 1022.32 1022.15 1021.84 1020.98 1020.65
1024.06 1024.31 1024.22 1024.51 1024.94 1025.22 1025.27 1025.28 1025.35 1025.38 1025.28 1025.33 1025.52 1025.76 1025.79 1026.03 1026.09 1026.12 1026.32 1026.69 1026.40 1025.75 1025.60 1025.44 1025.08 1024.67 1024.23 1023.93 1023.76 1023.53 1023.46 1023.33 1023.08 1022.95 1022.81 1022.62 1022.36 1022.08 1021.77 1021.50 1021.33 1020.96 1020.47
1023.24 1023.52 1024.16 1024.38 1024.57 1025.24 1025.41 1025.27 1025.17 1025.23 1025.30 1025.49 1025.56 1025.56 1025.48 1025.38 1025.46 1025.47 1025.96 1026.27 1026.41 1026.08 1025.74 1025.45 1024.76 1024.35 1024.00 1023.89 1023.67 1023.41 1023.28 1022.99 1022.80 1022.64 1022.40 1022.12 1021.80 1021.48 1021.16 1020.85 1020.62 1020.39 1020.09
1022.61 1023.17 1023.83 1024.08 1024.36 1024.84 1025.05 1025.03 1025.44 1025.44 1025.46 1025.50 1025.49 1025.43 1025.32 1025.04 1025.24 1025.42 1025.42 1025.80 1025.79 1026.30 1025.58 1024.99 1024.89 1024.23 1024.10 1023.97 1023.62 1023.22 1023.11 1022.88 1022.58 1022.28 1021.90 1021.47 1021.08 1020.74 1020.39 1020.12 1019.86 1019.63 1019.40
1023.27 1023.42 1023.57 1023.89 1024.19 1024.62 1024.85 1025.06 1025.28 1025.25 1025.36 1025.53 1025.58 1025.55 1025.39 1025.12 1025.20 1025.47 1025.91 1025.25 1025.38 1025.88 1025.74 1025.34 1025.01 1024.62 1024.32 1023.95 1023.52 1023.32 1022.98 1022.42 1022.08 1021.63 1021.13 1020.66 1020.32 1019.95 1019.68 1019.45 1019.21 1018.96 1018.62
1023.33 1023.59 1023.73 1023.88 1024.07 1024.31 1024.56 1024.83 1024.99 1025.11 1025.25 1025.39 1025.43 1025.53 1025.34 1025.19 1025.26 1025.27 1025.37 1025.39 1025.68 1025.87 1025.89 1025.41 1025.07 1024.76 1024.45 1024.08 1023.45 1023.06 1022.67 1022.09 1021.50 1021.03 1020.52 1020.08 1019.65 1019.28 1018.87 1018.59 1018.40 1018.09 1017.76
1022.93 1023.26 1023.35 1023.74 1023.93 1024.15 1024.30 1024.48 1024.64 1024.74 1024.94 1025.14 1025.33 1025.37 1025.29 1025.19 1025.09 1025.32 1025.41 1025.52 1025.79 1025.54 1025.77 1025.58 1025.18 1024.81 1024.47 1023.89 1023.25 1022.81 1022.12 1021.55 1021.12 1020.57 1019.98 1019.57 1019.03 1018.59 1018.29 1017.91 1017.56 1017.26 1016.93
1022.82 1023.09 1023.47 1023.66 1023.70 1023.64 1023.85 1024.09 1024.18 1024.37 1024.66 1024.85 1024.87 1024.89 1024.85 1024.97 1025.13 1024.97 1024.94 1025.21 1025.52 1025.29 1025.51 1025.57 1025.11 1024.68 1024.22 1023.62 1023.01 1022.42 1021.87 1021.48 1020.93 1020.26 1019.73 1019.09 1018.47 1018.06 1017.70 1017.33 1016.98 1016.63 1016.23
1022.98 1023.22 1023.33 1023.34 1023.29 1023.43 1023.63 1023.75 1024.00 1024.34 1024.52 1024.60 1024.75 1024.80 1024.68 1024.77 1024.96 1024.89 1024.86 1024.90 1024.97 1025.25 1025.34 1025.27 1024.88 1024.42 1023.98 1023.37 1022.89 1022.39 1021.81 1021.35 1020.69 1020.00 1019.45 1018.78 1018.13 1017.67 1017.21 1016.73 1016.33 1015.90 1015.45
1023.02 1023.04 1023.00 1022.89 1023.06 1023.23 1023.40 1023.56 1023.83 1024.20 1024.35 1024.48 1024.57 1024.73 1024.52 1024.46 1024.24 1024.41 1024.36 1024.78 1024.99 1025.11 1025.08 1024.95 1024.62 1024.21 1023.62 1023.10 1022.76 1022.26 1021.73 1021.07 1020.16 1019.79 1019.00 1018.32 1018.09 1017.31 1016.73 1016.15 1015.76 1015.47 1014.77
1022.72 1022.84 1022.62 1022.29 1022.38 1022.77 1023.24 1023.41 1023.72 1024.03 1024.22 1024.33 1024.43 1024.30 1024.36 1024.18 1024.34 1024.42 1024.42 1024.52 1024.80 1024.80 1024.66 1024.58 1024.23 1023.84 1023.15 1022.89 1022.41 1022.07 1021.50 1020.93 1020.03 1018.93 1018.81 1018.08 1017.54 1016.89 1016.31 1015.66 1015.06 1014.81 1014.35
1022.64 1023.00 1022.96 1022.67 1022.49 1022.78 1023.07 1023.18 1023.62 1024.01 1024.20 1024.30 1024.26 1024.15 1024.10 1024.26 1024.54 1024.76 1024.58 1024.52 1024.54 1024.26 1024.17 1024.06 1023.84 1023.52 1023.12 1022.69 1022.12 1021.55 1020.99 1020.64 1019.97 1018.78 1018.65 1017.69 1016.98 1016.45 1015.64 1014.79 1014.25 1013.93 1013.73
1023.11 1023.00 1022.51 1022.26 1022.25 1022.54 1022.76 1023.08 1023.46 1023.87 1024.05 1023.99 1023.94 1023.87 1023.90 1024.18 1024.33 1024.35 1024.27 1024.42 1024.36 1024.16 1023.89 1023.54 1023.38 1023.06 1022.63 1022.00 1021.53 1020.93 1020.35 1019.68 1018.99 1018.15 1017.96 1017.16 1016.18 1015.73 1014.91 1014.15 1013.63 1013.49 1013.31
1022.74 1022.49 1022.16 1021.99 1022.11 1022.37 1022.69 1022.93 1023.37 1023.73 1023.89 1023.79 1023.70 1023.56 1023.65 1023.80 1024.05 1023.97 1024.11 1024.22 1024.06 1023.76 1023.44 1023.08 1022.82 1022.29 1021.75 1021.14 1020.62 1020.20 1019.86 1019.41 1018.57 1017.64 1016.97 1016.69 1015.68 1015.26 1014.56 1013.93 1013.32 1012.85 1012.55
1022.44 1022.38 1022.19 1022.00 1021.89 1022.07 1022.32 1022.44 1022.80 1023.18 1023.50 1023.66 1023.53 1023.61 1023.38 1023.71 1023.75 1023.70 1023.77 1023.92 1023.82 1023.46 1023.21 1022.95 1022.60 1022.06 1021.44 1020.90 1020.29 1020.03 1019.73 1019.31 1018.62 1017.29 1016.36 1016.22 1015.46 1015.22 1014.58 1013.63 1013.25 1012.55 1012.08
Thickness
5618 5610 5608 5603 5598 5598 5598 5593 5590 5588 5581 5578 5571 5568 5566 5563 5560 5558 5556 5554 5554 5552 5550 5549 5547 5544 5542 5544 5539 5538 5537 5538 5541 5542 5544 5547 5549 5553 5557 5560 5562 5567 5574
5610 5605 5598 5598 5595 5593 5587 5586 5578 5574 5569 5566 5563 5560 5558 5553 5550 5547 5546 5546 5543 5541 5540 5538 5537 5536 5534 5532 5529 5528 5527 5527 5526 5528 5530 5533 5537 5539 5544 5549 5554 5556 5559
5602 5599 5596 5592 5587 5583 5579 5577 5568 5563 5560 5558 5554 5551 5547 5545 5540 5536 5535 5535 5533 5532 5528 5525 5521 5524 5523 5521 5519 5518 5515 5514 5512 5512 5513 5518 5522 5526 5529 5534 5538 5544 5548
5596 5593 5588 5585 5580 5575 5570 5564 5558 5554 5550 5546 5543 5539 5535 5532 5528 5525 5524 5522 5520 5517 5514 5510 5508 5508 5508 5507 5506 5504 5502 5498 5498 5496 5496 5497 5503 5509 5514 5518 5526 5529 5536
5590 5585 5583 5578 5572 5566 5560 5554 5550 5547 5541 5537 5533 5529 5524 5521 5517 5513 5511 5508 5505 5502 5499 5494 5492 5492 5490 5489 5488 5485 5485 5484 5479 5478 5478 5479 5482 5486 5493 5500 5507 5515 5521
5583 5578 5574 5565 5560 5554 5549 5544 5539 5534 5531 5527 5524 5517 5514 5510 5506 5501 5498 5494 5490 5485 5479 5473 5473 5474 5473 5469 5467 5463 5461 5459 5459 5457 5457 5457 5459 5466 5471 5480 5490 5497 5506
5576 5568 5562 5555 5550 5544 5538 5534 5530 5526 5521 5516 5510 5504 5503 5498 5494 5488 5484 5479 5473 5467 5461 5455 5451 5449 5447 5442 5438 5437 5434 5431 5430 5431 5432 5433 5435 5441 5448 5457 5467 5479 5487
5565 5559 5553 5547 5540 5533 5527 5523 5519 5514 5507 5501 5494 5488 5482 5483 5480 5476 5471 5462 5456 5448 5440 5433 5427 5421 5414 5410 5406 5403 5402 5397 5396 5399 5403 5403 5406 5411 5420 5431 5441 5452 5465
5558 5552 5547 5541 5534 5528 5520 5514 5507 5501 5492 5486 5480 5470 5463 5460 5459 5460 5455 5447 5440 5431 5421 5410 5400 5390 5379 5371 5369 5367 5366 5364 5364 5364 5366 5371 5373 5378 5387 5395 5412 5425 5437
5553 5548 5541 5533 5524 5516 5509 5503 5497 5491 5483 5473 5467 5461 5452 5444 5438 5435 5432 5427 5419 5408 5398 5386 5371 5357 5347 5339 5337 5336 5335 5332 5330 5332 5335 5340 5342 5345 5350 5362 5375 5392 5410
5549 5541 5531 5522 5513 5506 5499 5492 5485 5479 5471 5463 5455 5446 5439 5432 5424 5415 5412 5405 5399 5386 5373 5360 5342 5330 5322 5316 5313 5310 5310 5311 5310 5310 5311 5314 5318 5319 5322 5329 5342 5358 5374
5534 5527 5519 5511 5502 5493 5487 5479 5471 5465 5457 5450 5443 5433 5421 5411 5402 5393 5386 5382 5375 5368 5349 5329 5315 5309 5303 5299 5296 5296 5296 5296 5294 5294 5295 5298 5300 5303 5303 5306 5315 5328 5340
5519 5512 5507 5498 5488 5480 5473 5466 5459 5452 5445 5437 5428 5418 5409 5397 5387 5376 5364 5351 5344 5343 5327 5308 5297 5292 5290 5288 5287 5286 5284 5283 5284 5283 5282 5284 5286 5289 5292 5295 5299 5306 5313
5515 5507 5496 5489 5481 5468 5459 5453 5447 5439 5431 5422 5412 5403 5395 5384 5372 5361 5345 5327 5311 5306 5301 5287 5286 5281 5278 5276 5275 5274 5274 5273 5273 5272 5273 5273 5275 5278 5281 5285 5288 5293 5297
5507 5498 5487 5478 5469 5458 5449 5442 5432 5422 5414 5406 5396 5386 5377 5368 5354 5341 5329 5311 5294 5277 5287 5281 5271 5270 5267 5264 5263 5262 5262 5260 5260 5261 5262 5263 5265 5267 5271 5274 5278 5282 5287
5490 5483 5475 5466 5456 5447 5438 5429 5419 5409 5399 5388 5378 5368 5358 5350 5337 5322 5304 5296 5280 5264 5260 5261 5258 5256 5253 5251 5250 5248 5248 5249 5249 5251 5253 5256 5256 5258 5260 5263 5267 5271 5276
5479 5470 5462 5454 5445 5436 5426 5416 5406 5395 5383 5372 5362 5350 5341 5333 5318 5307 5292 5278 5262 5251 5245 5247 5245 5243 5241 5239 5240 5238 5236 5238 5240 5241 5243 5245 5247 5248 5251 5254 5256 5262 5268
5470 5460 5452 5442 5433 5422 5412 5401 5392 5383 5371 5359 5346 5335 5326 5314 5300 5285 5271 5260 5248 5243 5236 5234 5234 5232 5230 5229 5229 5230 5229 5229 5230 5232 5233 5235 5237 5238 5241 5245 5248 5251 5256
5457 5446 5436 5427 5419 5410 5400 5388 5380 5370 5356 5343 5333 5323 5312 5300 5285 5274 5263 5251 5240 5237 5228 5223 5224 5222 5220 5219 5220 5219 5220 5220 5220 5222 5223 5225 5227 5228 5229 5232 5236 5241 5246
5439 5430 5422 5413 5405 5395 5384 5372 5362 5350 5339 5328 5316 5303 5296 5285 5270 5260 5251 5241 5235 5228 5222 5216 5215 5213 5211 5209 5208 5209 5211 5210 5212 5212 5212 5213 5214 5215 5218 5222 5226 5230 5236
5426 5417 5409 5401 5389 5379 5369 5358 5346 5334 5324 5313 5300 5287 5279 5269 5260 5251 5242 5231 5224 5219 5213 5209 5207 5205 5203 5202 5200 5200 5200 5202 5205 5201 5203 5203 5201 5205 5208 5211 5215 5217 5225
5414 5405 5398 5391 5380 5368 5353 5342 5331 5319 5308 5296 5284 5275 5263 5255 5245 5238 5231 5224 5216 5211 5207 5201 5202 5198 5198 5194 5193 5191 5191 5192 5195 5193 5191 5192 5192 5195 5196 5199 5202 5204 5210
5399 5385 5375 5368 5362 5351 5340 5328 5313 5302 5291 5279 5270 5261 5250 5242 5233 5226 5220 5215 5209 5205 5200 5196 5194 5191 5189 5186 5186 5188 5187 5184 5181 5184 5182 5183 5185 5184 5185 5189 5193 5195 5198
5378 5369 5361 5354 5347 5337 5326 5311 5298 5286 5276 5267 5258 5249 5241 5232 5224 5219 5214 5207 5203 5199 5196 5192 5187 5185 5183 5183 5183 5184 5184 5183 5180 5180 5178 5180 5182 5181 5183 5185 5187 5190 5194
5365 5356 5348 5340 5330 5321 5310 5297 5284 5273 5263 5255 5246 5239 5231 5224 5216 5213 5208 5202 5198 5196 5191 5187 5183 5182 5182 5181 5182 5182 5179 5177 5177 5176 5177 5175 5178 5178 5178 5179 5184 5188 5193
5351 5342 5333 5324 5316 5307 5295 5287 5276 5262 5253 5243 5236 5228 5223 5215 5211 5208 5202 5197 5193 5192 5188 5183 5179 5178 5178 5178 5177 5176 5174 5171 5169 5173 5175 5173 5175 5172 5171 5176 5179 5186 5192